period_start,C,m1,H,J0,J1,J2,J3,J4,J5,JA,JB,JC,JD,JJ,JK,JN,#
2014-04-08 00:00:29,0.07,3.14,0.00,19.87,26.75,28.61,6.02,31.67,1016.48,2039.00,2382.08,2518.90,2721.00,350.79,328.39,33.22,0000 0000 0000 0000 000000
2014-04-08 00:01:29,0.04,3.14,0.00,19.87,26.75,28.66,6.17,31.67,1016.42,2039.00,2382.03,2518.78,2721.00,350.21,327.56,33.23,0000 0000 0000 0000 000000
2014-04-08 00:02:29,0.06,3.14,0.00,19.87,26.75,28.72,6.09,31.71,1016.35,2039.01,2382.01,2518.43,2721.00,350.05,327.39,33.24,0000 0000 0000 0000 000000
2014-04-08 00:03:30,0.11,3.14,0.00,19.85,26.75,28.64,6.16,31.71,1016.37,2039.00,2381.99,2518.18,2720.99,350.51,327.79,33.24,0000 0000 0000 0000 000000
2014-04-08 00:04:30,0.07,3.14,0.00,19.85,26.75,28.64,6.17,31.71,1016.45,2039.00,2381.97,2518.07,2720.88,350.36,327.73,33.25,0000 0000 0000 0000 000000
2014-04-08 00:05:30,0.06,3.14,0.00,19.86,26.75,28.65,6.11,31.83,1016.43,2039.00,2381.89,2518.02,2720.63,349.45,326.87,33.25,0000 0000 0000 0000 000000
2014-04-08 00:06:31,0.09,3.14,0.00,19.85,26.75,28.61,5.95,31.71,1016.39,2039.00,2381.66,2518.01,2720.38,349.87,327.00,33.26,0000 0000 0000 0000 000000
2014-04-08 00:07:31,0.12,3.14,0.00,19.84,26.75,28.60,6.25,31.71,1016.37,2039.00,2381.32,2518.00,2720.18,350.70,328.08,33.27,0000 0000 0000 0000 000000
2014-04-08 00:08:31,0.10,3.14,0.00,19.84,26.75,28.66,6.10,31.83,1016.41,2039.00,2381.14,2518.00,2720.07,349.67,327.09,33.27,0000 0000 0000 0000 000000
2014-04-08 00:09:31,0.06,3.14,0.00,19.84,26.75,28.63,6.06,31.75,1016.43,2039.00,2381.05,2517.98,2720.03,349.77,326.76,33.28,0000 0000 0000 0000 000000
2014-04-08 00:10:32,0.03,3.14,0.00,19.84,26.75,28.65,6.22,31.92,1016.39,2039.01,2381.01,2517.98,2720.01,349.71,327.12,33.28,0000 0000 0000 0000 000000
2014-04-08 00:11:32,0.01,3.14,0.00,19.84,26.74,28.65,6.12,31.79,1016.44,2039.00,2380.99,2517.91,2720.00,349.70,327.16,33.29,0000 0000 0000 0000 000000
2014-04-08 00:12:32,0.02,3.14,0.00,19.83,26.74,28.64,6.11,31.88,1016.45,2039.00,2380.98,2517.78,2720.00,350.15,327.57,33.29,0000 0000 0000 0000 000000
2014-04-08 00:13:32,0.04,3.14,0.00,19.84,26.74,28.61,6.13,31.71,1016.39,2039.00,2380.75,2517.43,2719.94,349.94,327.33,33.30,0000 0000 0000 0000 000000
2014-04-08 00:14:33,0.17,3.14,0.00,19.84,26.74,28.66,6.03,31.71,1016.36,2039.00,2380.33,2517.16,2719.73,350.20,327.56,33.31,0000 0000 0000 0000 000000
2014-04-08 00:15:33,0.24,3.15,0.00,19.84,26.73,28.69,6.04,31.79,1016.29,2039.03,2380.13,2517.06,2719.36,348.92,326.43,33.31,0000 0000 0000 0000 000000
2014-04-08 00:16:33,0.15,3.15,0.00,19.82,26.73,28.75,6.08,31.79,1016.31,2039.01,2380.04,2517.02,2719.14,349.73,327.13,33.32,0000 0000 0000 0000 000000
2014-04-08 00:17:33,0.06,3.15,0.00,19.82,26.73,28.69,6.20,31.71,1016.28,2039.03,2380.00,2517.00,2719.05,350.08,327.45,33.32,0000 0000 0000 0000 000000
2014-04-08 00:18:34,0.03,3.15,0.00,19.82,26.72,28.72,6.03,31.63,1016.30,2039.01,2379.93,2516.99,2719.01,349.32,326.85,33.33,0000 0000 0000 0000 000000
2014-04-08 00:19:34,0.02,3.15,0.00,19.80,26.72,28.72,6.22,31.88,1016.27,2039.00,2379.69,2516.98,2719.00,349.89,327.29,33.34,0000 0000 0000 0000 000000
2014-04-08 00:20:34,0.04,3.15,0.00,19.79,26.72,28.66,6.16,31.67,1016.23,2039.02,2379.51,2516.96,2719.00,349.57,326.99,33.34,0000 0000 0000 0000 000000
2014-04-08 00:21:34,0.06,3.15,0.00,19.78,26.72,28.67,6.09,31.75,1016.21,2039.02,2379.21,2516.88,2718.96,349.59,327.01,33.35,0000 0000 0000 0000 000000
2014-04-08 00:22:35,0.09,3.15,0.00,19.78,26.72,28.67,6.16,31.92,1016.19,2039.00,2379.09,2516.74,2718.96,350.79,327.86,33.35,0000 0000 0000 0000 000000
2014-04-08 00:23:35,0.08,3.15,0.00,19.78,26.72,28.71,6.12,31.71,1016.20,2039.02,2379.04,2516.44,2718.81,349.81,327.21,33.36,0000 0000 0000 0000 000000
2014-04-08 00:24:35,0.13,3.15,0.00,19.79,26.72,28.73,6.14,31.88,1016.17,2039.02,2379.01,2516.21,2718.55,349.41,326.83,33.36,0000 0000 0000 0000 000000
2014-04-08 00:25:36,0.11,3.15,0.00,19.79,26.72,28.67,6.11,31.67,1016.21,2039.03,2378.99,2516.10,2718.28,350.26,327.63,33.37,0000 0000 0000 0000 000000
2014-04-08 00:26:36,0.10,3.15,0.00,19.78,26.72,28.70,6.23,31.75,1016.17,2039.04,2378.91,2516.04,2718.10,350.90,328.25,33.38,0000 0000 0000 0000 000000
2014-04-08 00:27:36,0.06,3.15,0.00,19.75,26.72,28.71,6.15,31.83,1016.14,2039.01,2378.77,2516.01,2718.04,349.87,327.53,33.38,0000 0000 0000 0000 000000
2014-04-08 00:28:36,0.03,3.15,0.00,19.76,26.72,28.68,6.13,31.79,1016.16,2039.01,2378.55,2516.00,2718.01,350.16,327.53,33.39,0000 0000 0000 0000 000000
2014-04-08 00:29:36,0.08,3.15,0.00,19.75,26.72,28.71,6.17,31.75,1016.16,2039.06,2378.33,2516.00,2718.00,349.84,327.77,33.39,0000 0000 0000 0000 000000
2014-04-08 00:30:37,0.08,3.15,0.00,19.76,26.72,28.75,6.09,31.88,1016.15,2039.06,2378.15,2515.99,2718.00,350.09,327.95,33.40,0000 0000 0000 0000 000000
2014-04-08 00:31:37,0.03,3.15,0.00,19.76,26.72,28.70,6.04,31.79,1016.14,2039.04,2378.05,2515.99,2717.98,349.61,327.30,33.41,0000 0000 0000 0000 000000
2014-04-08 00:32:37,0.01,3.15,0.00,19.77,26.72,28.69,6.26,31.92,1016.17,2039.04,2378.01,2515.95,2717.92,350.59,327.96,33.41,0000 0000 0000 0000 000000
2014-04-08 00:33:38,0.05,3.15,0.00,19.77,26.72,28.65,6.13,31.79,1016.17,2039.04,2378.00,2515.72,2717.74,350.09,327.62,33.42,0000 0000 0000 0000 000000
2014-04-08 00:34:38,0.12,3.15,0.00,19.77,26.72,28.68,6.17,31.71,1016.16,2039.02,2378.00,2515.42,2717.47,348.67,326.40,33.42,0000 0000 0000 0000 000000
2014-04-08 00:35:38,0.11,3.15,0.00,19.76,26.72,28.64,6.15,31.75,1016.18,2039.06,2377.97,2515.38,2717.38,350.02,327.71,33.43,0000 0000 0000 0000 000000
2014-04-08 00:36:38,0.07,3.16,0.00,19.75,26.72,28.65,6.05,31.67,1016.19,2039.06,2377.98,2515.21,2717.24,349.00,326.34,33.44,0000 0000 0000 0000 000000
2014-04-08 00:37:39,0.10,3.16,0.00,19.76,26.72,28.70,6.15,31.83,1016.17,2039.06,2377.77,2515.10,2717.09,350.09,327.92,33.44,0000 0000 0000 0000 000000
2014-04-08 00:38:39,0.08,3.16,0.00,19.77,26.72,28.72,6.32,31.79,1016.20,2039.04,2377.75,2515.07,2717.03,350.16,328.00,33.45,0000 0000 0000 0000 000000
2014-04-08 00:39:39,0.04,3.16,0.00,19.77,26.72,28.69,6.06,31.83,1016.25,2039.06,2377.52,2515.03,2717.01,349.65,327.09,33.45,0000 0000 0000 0000 000000
2014-04-08 00:40:40,0.06,3.16,0.00,19.77,26.72,28.69,6.22,31.63,1016.28,2039.04,2377.27,2515.01,2717.00,350.38,327.60,33.46,0000 0000 0000 0000 000000
2014-04-08 00:41:40,0.06,3.16,0.00,19.77,26.72,28.71,6.06,31.71,1016.27,2039.06,2377.11,2515.00,2716.99,350.13,327.55,33.46,0000 0000 0000 0000 000000
2014-04-08 00:42:40,0.03,3.16,0.00,19.77,26.72,28.79,6.17,31.63,1016.38,2039.05,2377.04,2515.00,2716.98,349.83,327.31,33.47,0000 0000 0000 0000 000000
2014-04-08 00:43:40,0.01,3.16,0.00,19.77,26.72,28.72,6.09,31.63,1016.45,2039.07,2377.01,2514.99,2716.95,349.87,327.36,33.48,0000 0000 0000 0000 000000
2014-04-08 00:44:41,0.04,3.16,0.00,19.76,26.71,28.84,6.21,31.75,1016.55,2039.09,2377.00,2514.97,2716.88,350.44,327.93,33.48,0000 0000 0000 0000 000000
2014-04-08 00:45:41,0.03,3.16,0.00,19.76,26.71,28.78,6.09,31.67,1016.55,2039.06,2376.98,2514.93,2716.65,350.11,327.42,33.49,0000 0000 0000 0000 000000
2014-04-08 00:46:41,0.06,3.16,0.00,19.77,26.71,28.71,6.06,31.58,1016.58,2039.07,2376.69,2514.59,2716.31,349.83,327.37,33.49,0000 0000 0000 0000 000000
2014-04-08 00:47:42,0.20,3.16,0.00,19.77,26.70,28.72,6.18,31.71,1016.59,2039.04,2376.36,2514.25,2716.14,350.75,328.22,33.50,0000 0000 0000 0000 000000
2014-04-08 00:48:42,0.20,3.16,0.00,19.78,26.70,28.67,6.01,31.54,1016.60,2039.04,2376.14,2514.14,2716.05,349.37,326.52,33.51,0000 0000 0000 0000 000000
2014-04-08 00:49:42,0.11,3.16,0.00,19.77,26.70,28.70,6.07,31.63,1016.61,2039.07,2376.06,2514.08,2716.01,349.94,327.47,33.51,0000 0000 0000 0000 000000
2014-04-08 00:50:43,0.05,3.16,0.00,19.77,26.70,28.69,6.03,31.63,1016.61,2039.04,2376.02,2514.04,2716.00,349.65,326.92,33.52,0000 0000 0000 0000 000000
2014-04-08 00:51:43,0.00,3.16,0.00,19.77,26.70,28.71,6.15,31.54,1016.62,2039.05,2376.00,2514.01,2716.00,350.00,327.54,33.52,0000 0000 0000 0000 000000
2014-04-08 00:52:43,0.01,3.16,0.00,19.77,26.70,28.66,6.13,31.46,1016.62,2039.05,2375.98,2514.00,2715.97,350.17,327.90,33.53,0000 0000 0000 0000 000000
2014-04-08 00:53:43,0.01,3.16,0.00,19.79,26.70,28.66,6.14,31.71,1016.62,2039.05,2375.95,2514.00,2715.98,350.72,328.02,33.53,0000 0000 0000 0000 000000
2014-04-08 00:54:43,0.02,3.16,0.00,19.79,26.70,28.65,6.06,31.67,1016.62,2039.09,2375.82,2513.99,2715.90,350.63,327.70,33.54,0000 0000 0000 0000 000000
2014-04-08 00:55:44,0.10,3.16,0.00,19.79,26.70,28.72,6.18,31.46,1016.62,2039.11,2375.49,2513.96,2715.63,349.59,327.62,33.55,0000 0000 0000 0000 000000
2014-04-08 00:56:44,0.16,3.16,0.00,19.79,26.70,28.69,6.27,31.67,1016.62,2039.14,2375.22,2513.91,2715.35,351.04,328.49,33.55,0000 0000 0000 0000 000000
2014-04-08 00:57:45,0.13,3.17,0.00,19.78,26.70,28.65,6.09,31.21,1016.62,2039.20,2375.09,2513.71,2715.17,350.39,327.77,33.56,0000 0000 0000 0000 000000
2014-04-08 00:58:45,0.15,3.17,0.00,19.77,26.70,28.65,6.06,31.58,1016.62,2039.22,2375.04,2513.42,2715.06,350.54,328.04,33.56,0000 0000 0000 0000 000000
2014-04-08 00:59:45,0.17,3.17,0.00,19.79,26.70,28.64,6.01,31.67,1016.62,2039.19,2374.92,2513.19,2715.02,350.47,327.95,33.57,0000 0000 0000 0000 000000
2014-04-08 01:00:45,0.06,3.17,0.00,19.81,26.70,28.61,6.06,31.63,1016.62,2039.12,2374.82,2513.07,2715.00,349.70,327.21,33.58,0000 0000 0000 0000 000000
2014-04-08 01:01:45,-0.01,3.17,0.00,19.79,26.70,28.61,6.07,31.58,1016.62,2039.09,2374.66,2513.02,2714.99,349.79,327.30,33.58,0000 0000 0000 0000 000000
2014-04-08 01:02:46,0.04,3.17,0.00,19.80,26.70,28.59,6.22,31.58,1016.62,2039.11,2374.51,2513.01,2714.99,350.20,327.49,33.59,0000 0000 0000 0000 000000
2014-04-08 01:03:46,0.08,3.17,0.00,19.80,26.70,28.55,6.17,31.42,1016.62,2039.08,2374.21,2513.00,2714.79,350.86,328.14,33.59,0000 0000 0000 0000 000000
2014-04-08 01:04:46,0.07,3.17,0.00,19.79,26.70,28.56,6.19,31.63,1016.62,2039.07,2374.08,2513.00,2714.37,349.93,327.91,33.60,0000 0000 0000 0000 000000
2014-04-08 01:05:47,0.09,3.17,0.00,19.80,26.70,28.58,6.06,31.63,1016.62,2039.06,2374.01,2512.90,2714.18,349.41,326.96,33.61,0000 0000 0000 0000 000000
2014-04-08 01:06:47,0.08,3.17,0.00,19.80,26.70,28.55,6.11,31.58,1016.62,2039.03,2373.89,2512.56,2714.08,349.60,327.07,33.61,0000 0000 0000 0000 000000
2014-04-08 01:07:47,0.14,3.17,0.00,19.79,26.70,28.56,6.00,31.46,1016.62,2039.02,2373.69,2512.26,2714.03,349.02,326.74,33.62,0000 0000 0000 0000 000000
2014-04-08 01:08:48,0.15,3.17,0.00,19.82,26.70,28.58,6.02,31.71,1016.62,2039.01,2373.30,2512.10,2714.01,350.48,327.94,33.62,0000 0000 0000 0000 000000
2014-04-08 01:09:48,0.11,3.17,0.00,19.82,26.70,28.55,5.98,31.58,1016.62,2039.03,2373.13,2512.05,2714.00,349.16,326.70,33.63,0000 0000 0000 0000 000000
2014-04-08 01:10:48,0.06,3.17,0.00,19.82,26.70,28.55,5.98,31.46,1016.62,2039.04,2373.05,2512.02,2713.97,349.43,326.48,33.63,0000 0000 0000 0000 000000
2014-04-08 01:11:49,0.04,3.17,0.00,19.81,26.70,28.49,6.17,31.58,1016.62,2039.02,2373.01,2512.00,2713.74,351.19,328.47,33.64,0000 0000 0000 0000 000000
2014-04-08 01:12:49,0.05,3.17,0.00,19.82,26.70,28.46,6.03,31.42,1016.62,2039.02,2372.96,2512.00,2713.36,348.84,326.75,33.65,0000 0000 0000 0000 000000
2014-04-08 01:13:49,0.07,3.17,0.00,19.84,26.70,28.49,6.01,31.50,1016.62,2039.03,2372.86,2512.00,2713.15,349.46,326.95,33.65,0000 0000 0000 0000 000000
2014-04-08 01:14:49,0.09,3.17,0.00,19.84,26.70,28.48,6.13,31.58,1016.62,2039.02,2372.48,2511.95,2713.05,349.61,327.09,33.66,0000 0000 0000 0000 000000
2014-04-08 01:15:50,0.10,3.17,0.00,19.84,26.70,28.47,6.19,31.54,1016.62,2039.02,2372.20,2511.82,2713.01,349.68,327.48,33.66,0000 0000 0000 0000 000000
2014-04-08 01:16:50,0.13,3.18,0.00,19.84,26.70,28.48,6.07,31.42,1016.62,2039.03,2372.08,2511.48,2713.00,350.56,327.98,33.67,0000 0000 0000 0000 000000
2014-04-08 01:17:50,0.13,3.18,0.00,19.82,26.70,28.48,6.22,31.46,1016.62,2039.02,2372.02,2511.22,2713.00,349.92,327.40,33.68,0000 0000 0000 0000 000000
2014-04-08 01:18:51,0.07,3.18,0.00,19.82,26.70,28.44,6.12,31.67,1016.62,2039.08,2372.00,2511.22,2713.00,350.22,327.93,33.68,0000 0000 0000 0000 000000
2014-04-08 01:19:51,0.11,3.18,0.00,19.83,26.70,28.43,6.19,31.67,1016.62,2039.39,2372.01,2511.42,2713.00,350.23,327.31,33.69,0000 0000 0000 0000 000000
2014-04-08 01:20:51,0.13,3.18,0.00,19.85,26.70,28.42,5.98,31.63,1016.62,2039.46,2372.00,2511.29,2713.00,349.20,326.99,33.69,0000 0000 0000 0000 000000
2014-04-08 01:21:51,0.12,3.18,0.00,19.84,26.70,28.47,6.09,31.63,1016.62,2039.52,2372.00,2511.14,2712.98,349.94,327.40,33.70,0000 0000 0000 0000 000000
2014-04-08 01:22:52,0.11,3.18,0.00,19.84,26.69,28.47,6.13,31.67,1016.62,2039.63,2371.99,2511.05,2712.94,349.96,327.56,33.70,0000 0000 0000 0000 000000
2014-04-08 01:23:52,0.17,3.18,0.00,19.84,26.70,28.45,6.23,31.67,1016.61,2039.78,2371.80,2511.02,2712.85,350.30,327.70,33.71,0000 0000 0000 0000 000000
2014-04-08 01:24:52,0.17,3.18,0.00,19.83,26.69,28.44,6.13,31.67,1016.61,2039.82,2371.47,2511.00,2712.61,350.44,327.88,33.72,0000 0000 0000 0000 000000
2014-04-08 01:25:53,0.18,3.18,0.00,19.82,26.70,28.37,6.16,31.54,1016.60,2039.88,2371.24,2511.00,2712.37,350.53,327.97,33.72,0000 0000 0000 0000 000000
2014-04-08 01:26:53,0.14,3.18,0.00,19.82,26.70,28.40,6.04,31.38,1016.61,2039.81,2371.09,2510.99,2712.15,349.81,327.17,33.73,0000 0000 0000 0000 000000
2014-04-08 01:27:53,0.04,3.18,0.00,19.83,26.70,28.42,6.21,31.67,1016.62,2039.83,2371.03,2510.97,2712.06,350.99,328.30,33.73,0000 0000 0000 0000 000000
2014-04-08 01:28:53,0.03,3.18,0.00,19.84,26.70,28.41,6.12,31.58,1016.60,2039.78,2370.99,2510.87,2712.02,349.61,327.03,33.74,0000 0000 0000 0000 000000
2014-04-08 01:29:54,0.00,3.18,0.00,19.85,26.69,28.40,6.21,31.92,1016.61,2039.77,2370.87,2510.65,2712.01,349.48,326.96,33.75,0000 0000 0000 0000 000000
2014-04-08 01:30:54,0.11,3.18,0.00,19.85,26.69,28.36,5.94,31.71,1016.60,2039.88,2370.57,2510.41,2712.00,349.16,326.65,33.75,0000 0000 0000 0000 000000
2014-04-08 01:31:54,0.21,3.19,0.00,19.87,26.70,28.39,6.07,31.88,1016.60,2039.86,2370.26,2510.18,2711.98,349.70,327.14,33.76,0000 0000 0000 0000 000000
2014-04-08 01:32:55,0.12,3.19,0.00,19.87,26.69,28.39,5.98,31.67,1016.60,2039.85,2370.12,2510.08,2711.95,349.54,326.99,33.76,0000 0000 0000 0000 000000
2014-04-08 01:33:55,0.09,3.19,0.00,19.87,26.69,28.40,6.24,31.79,1016.61,2039.92,2370.04,2510.04,2711.85,349.43,326.89,33.77,0000 0000 0000 0000 000000
2014-04-08 01:34:55,0.08,3.19,0.00,19.88,26.69,28.42,6.16,31.83,1016.58,2039.93,2370.01,2510.01,2711.48,349.91,327.33,33.77,0000 0000 0000 0000 000000
2014-04-08 01:35:55,0.11,3.19,0.00,19.90,26.69,28.42,5.98,31.58,1016.56,2039.91,2370.00,2510.00,2711.23,348.82,326.27,33.78,0000 0000 0000 0000 000000
2014-04-08 01:36:55,-0.01,3.19,0.00,19.91,26.69,28.41,6.04,31.67,1016.53,2039.84,2369.99,2509.98,2711.09,349.44,326.83,33.79,0000 0000 0000 0000 000000
2014-04-08 01:37:56,-0.04,3.19,0.00,19.92,26.69,28.39,6.15,31.67,1016.50,2039.79,2369.75,2509.94,2711.03,349.89,327.11,33.79,0000 0000 0000 0000 000000
2014-04-08 01:38:56,0.09,3.19,0.00,19.92,26.69,28.42,6.14,31.79,1016.45,2039.87,2369.44,2509.93,2711.01,349.84,327.34,33.80,0000 0000 0000 0000 000000
2014-04-08 01:39:56,0.15,3.19,0.00,19.92,26.69,28.43,6.27,31.75,1016.44,2039.90,2369.19,2509.76,2710.99,350.77,328.04,33.80,0000 0000 0000 0000 000000
2014-04-08 01:40:56,0.17,3.19,0.00,19.92,26.69,28.41,6.18,31.71,1016.44,2039.88,2369.07,2509.38,2710.96,350.01,327.32,33.81,0000 0000 0000 0000 000000
2014-04-08 01:41:57,0.13,3.19,0.00,19.93,26.70,28.40,6.19,31.63,1016.39,2039.93,2369.02,2509.20,2710.96,349.53,327.08,33.82,0000 0000 0000 0000 000000
2014-04-08 01:42:57,0.09,3.19,0.00,19.94,26.69,28.42,6.14,31.79,1016.45,2039.95,2369.00,2509.11,2710.75,349.99,326.89,33.82,0000 0000 0000 0000 000000
2014-04-08 01:43:57,0.11,3.19,0.00,19.94,26.69,28.39,5.98,31.67,1016.49,2039.95,2368.91,2509.04,2710.35,348.88,326.26,33.83,0000 0000 0000 0000 000000
2014-04-08 01:44:58,0.08,3.19,0.00,19.95,26.69,28.41,6.06,31.67,1016.52,2039.95,2368.64,2509.01,2710.17,350.29,327.58,33.83,0000 0000 0000 0000 000000
2014-04-08 01:45:58,0.13,3.19,0.00,19.94,26.70,28.41,6.08,31.71,1016.51,2039.97,2368.46,2509.00,2710.06,349.57,326.72,33.84,0000 0000 0000 0000 000000
2014-04-08 01:46:58,0.04,3.19,0.00,19.95,26.69,28.41,6.12,31.75,1016.52,2039.96,2368.43,2509.00,2710.03,350.82,328.07,33.85,0000 0000 0000 0000 000000
2014-04-08 01:47:58,0.00,3.19,0.00,19.95,26.69,28.39,6.07,31.79,1016.53,2039.95,2368.30,2509.00,2710.01,350.92,328.04,33.85,0000 0000 0000 0000 000000
2014-04-08 01:48:58,0.02,3.19,0.00,19.94,26.69,28.36,6.00,31.71,1016.46,2039.91,2368.11,2508.97,2710.00,349.77,327.07,33.86,0000 0000 0000 0000 000000
2014-04-08 01:49:59,0.02,3.19,0.00,19.95,26.69,28.43,6.28,31.67,1016.48,2039.92,2368.04,2508.85,2709.98,349.85,327.18,33.86,0000 0000 0000 0000 000000
2014-04-08 01:50:59,0.08,3.19,0.00,19.97,26.69,28.44,5.98,31.67,1016.43,2039.87,2367.99,2508.53,2709.95,349.40,326.69,33.87,0000 0000 0000 0000 000000
2014-04-08 01:51:59,0.05,3.19,0.00,19.98,26.69,28.44,6.02,31.75,1016.40,2039.91,2367.96,2508.32,2709.84,348.66,325.98,33.87,0000 0000 0000 0000 000000
2014-04-08 01:53:00,0.16,3.20,0.00,19.98,26.69,28.50,6.10,31.67,1016.44,2039.91,2367.69,2508.15,2709.52,350.51,327.72,33.88,0000 0000 0000 0000 000000
2014-04-08 01:54:00,0.15,3.20,0.00,19.99,26.69,28.47,6.19,31.67,1016.37,2039.77,2367.32,2508.05,2709.23,349.38,326.64,33.89,0000 0000 0000 0000 000000
2014-04-08 01:55:00,0.06,3.20,0.00,19.99,26.69,28.48,6.19,31.79,1016.32,2039.70,2367.11,2508.02,2709.08,349.97,327.17,33.89,0000 0000 0000 0000 000000
2014-04-08 01:56:00,-0.00,3.20,0.00,20.00,26.69,28.47,6.05,31.92,1016.42,2039.59,2367.04,2508.00,2709.03,349.77,326.63,33.90,0000 0000 0000 0000 000000
2014-04-08 01:57:01,-0.08,3.20,0.00,19.99,26.70,28.47,6.16,31.75,1016.45,2039.39,2367.01,2508.00,2708.99,350.55,327.78,33.90,0000 0000 0000 0000 000000
2014-04-08 01:58:01,-0.17,3.20,0.00,20.00,26.70,28.48,6.11,31.33,1016.45,2039.31,2367.00,2507.93,2708.97,350.84,327.85,33.91,0000 0000 0000 0000 000000
2014-04-08 01:59:01,-0.02,3.20,0.00,20.01,26.70,28.49,6.14,31.79,1016.41,2039.26,2366.99,2507.68,2708.80,349.50,326.74,33.92,0000 0000 0000 0000 000000
2014-04-08 02:00:01,0.09,3.20,0.00,20.02,26.70,28.48,6.16,31.75,1016.49,2039.21,2366.82,2507.31,2708.42,350.20,327.41,33.92,0000 0000 0000 0000 000000
2014-04-08 02:01:01,0.18,3.20,0.00,20.02,26.70,28.54,6.11,31.79,1016.53,2039.17,2366.52,2507.13,2708.22,349.99,326.97,33.93,0000 0000 0000 0000 000000
2014-04-08 02:02:02,0.10,3.20,0.00,20.03,26.70,28.57,6.11,31.83,1016.56,2039.14,2366.26,2507.05,2708.10,350.09,327.28,33.93,0000 0000 0000 0000 000000
2014-04-08 02:03:02,0.06,3.20,0.00,20.04,26.70,28.56,6.11,31.75,1016.58,2039.12,2366.09,2507.01,2708.03,350.36,327.56,33.94,0000 0000 0000 0000 000000
2014-04-08 02:04:02,0.03,3.20,0.00,20.04,26.70,28.57,6.08,31.71,1016.61,2039.09,2366.02,2507.00,2708.01,349.56,326.66,33.94,0000 0000 0000 0000 000000
2014-04-08 02:05:02,0.01,3.20,0.00,20.04,26.70,28.58,6.11,31.75,1016.60,2039.11,2365.99,2507.00,2708.00,350.22,327.43,33.95,0000 0000 0000 0000 000000
2014-04-08 02:06:03,0.00,3.20,0.00,20.04,26.70,28.56,5.98,31.63,1016.58,2039.08,2365.92,2506.99,2707.97,348.70,326.01,33.96,0000 0000 0000 0000 000000
2014-04-08 02:07:03,0.00,3.20,0.00,20.04,26.70,28.61,6.13,31.58,1016.55,2039.07,2365.73,2506.96,2707.92,349.95,327.46,33.96,0000 0000 0000 0000 000000
2014-04-08 02:08:03,0.08,3.20,0.00,20.07,26.70,28.67,5.98,31.71,1016.54,2039.10,2365.36,2506.74,2707.60,350.15,327.56,33.97,0000 0000 0000 0000 000000
2014-04-08 02:09:03,0.23,3.20,0.00,20.06,26.70,28.65,6.08,31.67,1016.51,2039.11,2365.15,2506.41,2707.28,349.82,327.13,33.97,0000 0000 0000 0000 000000
2014-04-08 02:10:04,0.23,3.20,0.00,20.07,26.70,28.61,6.00,31.71,1016.49,2039.11,2365.05,2506.17,2707.11,349.49,326.70,33.98,0000 0000 0000 0000 000000
2014-04-08 02:11:04,0.13,3.20,0.00,20.07,26.70,28.66,6.05,31.96,1016.55,2039.09,2365.00,2506.07,2707.05,350.25,327.69,33.99,0000 0000 0000 0000 000000
2014-04-08 02:12:04,0.03,3.20,0.00,20.08,26.70,28.67,6.19,32.00,1016.53,2039.13,2364.98,2506.03,2707.02,350.65,327.66,33.99,0000 0000 0000 0000 000000
2014-04-08 02:13:04,0.08,3.20,0.00,20.08,26.70,28.69,6.10,31.79,1016.57,2039.12,2364.92,2506.01,2707.00,350.41,327.57,34.00,0000 0000 0000 0000 000000
2014-04-08 02:14:05,-0.03,3.20,0.00,20.09,26.70,28.70,6.17,31.63,1016.59,2039.07,2364.51,2506.00,2706.98,350.34,327.48,34.00,0000 0000 0000 0000 000000
2014-04-08 02:15:05,0.10,3.20,0.00,20.10,26.70,28.75,6.16,31.75,1016.59,2039.06,2364.22,2506.00,2706.93,350.27,327.41,34.01,0000 0000 0000 0000 000000
2014-04-08 02:16:05,0.05,3.20,0.00,20.09,26.70,28.77,6.13,31.71,1016.60,2039.05,2364.11,2505.99,2706.87,349.61,326.81,34.01,0000 0000 0000 0000 000000
2014-04-08 02:17:05,0.03,3.20,0.00,20.08,26.70,28.74,6.24,31.67,1016.61,2039.03,2364.04,2505.88,2706.53,350.79,327.93,34.02,0000 0000 0000 0000 000000
2014-04-08 02:18:06,0.13,3.20,0.00,20.09,26.70,28.66,6.10,31.83,1016.61,2039.08,2364.01,2505.59,2706.27,349.68,326.88,34.03,0000 0000 0000 0000 000000
2014-04-08 02:19:06,0.16,3.21,0.00,20.09,26.70,28.64,6.13,31.54,1016.61,2039.09,2363.99,2505.39,2706.12,349.42,327.09,34.03,0000 0000 0000 0000 000000
2014-04-08 02:20:06,0.12,3.21,0.00,20.10,26.71,28.71,6.02,31.75,1016.62,2039.09,2363.96,2505.16,2706.05,348.47,325.74,34.04,0000 0000 0000 0000 000000
2014-04-08 02:21:06,0.06,3.21,0.00,20.12,26.71,28.69,6.17,31.54,1016.62,2039.10,2363.95,2505.08,2706.01,350.99,328.13,34.04,0000 0000 0000 0000 000000
2014-04-08 02:22:06,0.05,3.21,0.00,20.12,26.72,28.72,6.17,31.58,1016.62,2039.05,2363.68,2505.03,2706.00,349.86,327.17,34.05,0000 0000 0000 0000 000000
2014-04-08 02:23:07,0.04,3.21,0.00,20.12,26.72,28.73,6.08,31.75,1016.62,2039.02,2363.31,2505.01,2705.99,348.68,325.76,34.06,0000 0000 0000 0000 000000
2014-04-08 02:24:07,0.06,3.21,0.00,20.13,26.72,28.78,6.13,31.75,1016.62,2039.04,2363.13,2505.00,2705.92,350.23,327.35,34.06,0000 0000 0000 0000 000000
2014-04-08 02:25:07,0.06,3.21,0.00,20.14,26.72,28.83,6.03,31.75,1016.62,2039.02,2363.05,2505.00,2705.76,349.50,326.55,34.07,0000 0000 0000 0000 000000
2014-04-08 02:26:07,0.03,3.21,0.00,20.13,26.72,28.78,6.12,31.75,1016.62,2039.01,2363.00,2504.93,2705.41,350.82,328.07,34.07,0000 0000 0000 0000 000000
2014-04-08 02:27:07,0.09,3.21,0.00,20.14,26.72,28.77,5.94,31.71,1016.62,2039.02,2362.93,2504.68,2705.16,349.53,326.78,34.08,0000 0000 0000 0000 000000
2014-04-08 02:28:07,0.17,3.21,0.00,20.14,26.72,28.77,6.26,31.96,1016.61,2039.03,2362.66,2504.35,2705.06,350.15,327.26,34.09,0000 0000 0000 0000 000000
2014-04-08 02:29:08,0.19,3.21,0.00,20.13,26.72,28.81,6.08,31.71,1016.61,2039.03,2362.44,2504.16,2705.02,349.63,326.79,34.09,0000 0000 0000 0000 000000
2014-04-08 02:30:08,0.10,3.21,0.00,20.14,26.72,28.82,6.24,31.88,1016.61,2039.04,2362.26,2504.07,2705.00,350.03,326.82,34.10,0000 0000 0000 0000 000000
2014-04-08 02:31:08,0.07,3.21,0.00,20.16,26.72,28.84,6.11,31.79,1016.61,2039.03,2362.11,2504.03,2704.97,350.24,326.96,34.10,0000 0000 0000 0000 000000
2014-04-08 02:32:08,0.04,3.21,0.00,20.17,26.72,28.82,6.21,31.92,1016.60,2039.01,2362.02,2504.01,2704.87,350.57,327.26,34.11,0000 0000 0000 0000 000000
2014-04-08 02:33:09,0.03,3.21,0.00,20.17,26.72,28.83,5.92,31.75,1016.60,2039.00,2361.86,2503.98,2704.45,349.15,326.00,34.11,0000 0000 0000 0000 000000
2014-04-08 02:34:09,0.14,3.21,0.00,20.19,26.72,28.81,6.18,31.88,1016.56,2039.00,2361.65,2503.96,2704.18,349.80,327.18,34.12,0000 0000 0000 0000 000000
2014-04-08 02:35:09,0.09,3.21,0.00,20.19,26.73,28.78,6.23,31.79,1016.56,2039.01,2361.39,2503.88,2704.07,350.98,327.96,34.13,0000 0000 0000 0000 000000
2014-04-08 02:36:09,0.11,3.21,0.00,20.20,26.74,28.77,5.98,31.50,1016.50,2039.00,2361.16,2503.59,2704.02,348.84,325.94,34.13,0000 0000 0000 0000 000000